Washington, PA

1:11 PM EDT on August 21, 2017 (GMT -0400)
Washington County

Weather History for KAFJ - December, 2013

Change the Weather History Date:

Thursday, December 12, 2013

  Actual Average Record
Temperature  
Mean Temperature 18 °F -  
Max Temperature 23 °F 41 °F 68 °F (2015)
Min Temperature 12 °F 25 °F 8 °F (2005)
Degree Days  
Heating Degree Days 48    
Moisture  
Dew Point 5 °F    
Average Humidity 56    
Maximum Humidity 74    
Minimum Humidity 39    
Precipitation  
Precipitation 0.00 in - - ()
Sea Level Pressure  
Sea Level Pressure 30.35 in    
Wind  
Wind Speed 9 mph (WSW)    
Max Wind Speed 17 mph    
Max Gust Speed 26 mph    
Visibility 10 miles    
Events      
Averages and records for this station are not official NWS values.
T = Trace of Precipitation, MM = Missing Value Source: NWS Daily Summary

Daily Weather History Graph

Daily Weather History Graph

Search for Another Location

Airport or City:

Trip Planner

Search our weather history database for the weather conditions in past years. The results will help you decide how hot, cold, wet, or windy it might be!

Date:

Astronomy

Dec. 12, 2013 Rise Set
Actual Time 7:34 AM EST 4:55 PM EST
Civil Twilight 7:03 AM EST 5:26 PM EST
Nautical Twilight 6:29 AM EST 6:00 PM EST
Astronomical Twilight 5:56 AM EST 6:33 PM EST
Moon 2:02 PM EST (12/12) 2:55 AM EST (12/12)
Length of Visible Light 10h 22m
Length of Day
9h 21m
Waxing Gibbous, 80% of the Moon is Illuminated
Dec 12
Waxing Gibbous
Dec 17
Full
Dec 25
Last Quarter
Jan 1
New
Jan 7
First Quarter

Hourly Weather History & Observations

Time (EST) Temp. Windchill Dew Point Humidity Pressure Visibility Wind Dir Wind Speed Gust Speed Precip Events Conditions
12:15 AM 21.2 °F 11.7 °F 10.4 °F 63% 30.35 in 10.0 mi WNW 8.1 mph - N/A   Mostly Cloudy
12:35 AM 19.4 °F 10.4 °F 12.2 °F 74% 30.35 in 10.0 mi West 6.9 mph - N/A   Overcast
12:55 AM 19.4 °F 11.5 °F 10.4 °F 68% 30.35 in 10.0 mi West 5.8 mph - N/A   Mostly Cloudy
1:15 AM 19.4 °F 10.4 °F 10.4 °F 68% 30.36 in 10.0 mi West 6.9 mph - N/A   Partly Cloudy
1:35 AM 19.4 °F 12.8 °F 10.4 °F 68% 30.36 in 10.0 mi West 4.6 mph - N/A   Mostly Cloudy
1:55 AM 19.4 °F 12.8 °F 10.4 °F 68% 30.36 in 10.0 mi WSW 4.6 mph - N/A   Overcast
2:15 AM 19.4 °F 11.5 °F 12.2 °F 74% 30.36 in 10.0 mi West 5.8 mph - N/A   Overcast
2:35 AM 19.4 °F 10.4 °F 12.2 °F 74% 30.37 in 6.0 mi West 6.9 mph - N/A   Overcast
2:55 AM 17.6 °F 7.3 °F 8.6 °F 68% 30.37 in 10.0 mi NW 8.1 mph 16.1 mph N/A   Overcast
3:15 AM 17.6 °F 6.4 °F 6.8 °F 63% 30.37 in 10.0 mi WNW 9.2 mph - N/A   Overcast
3:35 AM 17.6 °F 9.3 °F 6.8 °F 63% 30.38 in 10.0 mi WNW 5.8 mph - N/A   Overcast
3:55 AM 17.6 °F 10.7 °F 6.8 °F 63% 30.38 in 10.0 mi WNW 4.6 mph - N/A   Overcast
4:15 AM 17.6 °F 9.3 °F 6.8 °F 63% 30.38 in 10.0 mi West 5.8 mph - N/A   Overcast
4:35 AM 17.6 °F 9.3 °F 8.6 °F 68% 30.38 in 10.0 mi WNW 5.8 mph - N/A   Overcast
4:55 AM 17.6 °F 7.3 °F 10.4 °F 73% 30.38 in 7.0 mi WNW 8.1 mph - N/A   Overcast
5:15 AM 17.6 °F 8.2 °F 10.4 °F 73% 30.38 in 3.0 mi WNW 6.9 mph - N/A   Overcast
5:35 AM 15.8 °F 5.1 °F 8.6 °F 73% 30.39 in 5.0 mi WNW 8.1 mph - N/A   Overcast
5:55 AM 15.8 °F 6.1 °F 8.6 °F 73% 30.40 in 10.0 mi West 6.9 mph - N/A   Overcast
6:15 AM 15.8 °F 5.1 °F 6.8 °F 68% 30.40 in 10.0 mi WNW 8.1 mph - N/A   Overcast
6:35 AM 15.8 °F 5.1 °F 6.8 °F 68% 30.41 in 10.0 mi West 8.1 mph - N/A   Overcast
6:55 AM 15.8 °F 8.6 °F 6.8 °F 68% 30.42 in 10.0 mi West 4.6 mph - N/A   Overcast
7:15 AM 14.0 °F 6.5 °F 5.0 °F 67% 30.42 in 10.0 mi West 4.6 mph - N/A   Mostly Cloudy
7:35 AM 12.2 °F 1.7 °F 5.0 °F 73% 30.43 in 10.0 mi West 6.9 mph - N/A   Scattered Clouds
7:55 AM 12.2 °F 0.7 °F 3.2 °F 67% 30.44 in 10.0 mi West 8.1 mph - N/A   Clear
8:15 AM 12.2 °F 4.3 °F 3.2 °F 67% 30.44 in 10.0 mi SW 4.6 mph - N/A   Clear
8:35 AM 12.2 °F 1.7 °F 3.2 °F 67% 30.44 in 10.0 mi West 6.9 mph - N/A   Clear
8:55 AM 12.2 °F 1.7 °F 3.2 °F 67% 30.45 in 10.0 mi West 6.9 mph - N/A   Clear
9:15 AM 12.2 °F -1.8 °F 3.2 °F 67% 30.45 in 10.0 mi WSW 11.5 mph - N/A   Clear
9:35 AM 14.0 °F 2.0 °F 3.2 °F 62% 30.44 in 10.0 mi SW 9.2 mph - N/A   Partly Cloudy
9:55 AM 14.0 °F -0.2 °F 3.2 °F 62% 30.45 in 10.0 mi WSW 12.7 mph 17.3 mph N/A   Scattered Clouds
10:15 AM 15.8 °F 3.4 °F 3.2 °F 58% 30.45 in 10.0 mi West 10.4 mph - N/A   Partly Cloudy
10:35 AM 15.8 °F 4.2 °F 3.2 °F 58% 30.44 in 10.0 mi SW 9.2 mph - N/A   Scattered Clouds
10:55 AM 15.8 °F 4.2 °F 5.0 °F 62% 30.43 in 10.0 mi SW 9.2 mph 19.6 mph N/A   Mostly Cloudy
11:15 AM 17.6 °F 6.4 °F 3.2 °F 53% 30.42 in 10.0 mi WSW 9.2 mph 19.6 mph N/A   Partly Cloudy
11:35 AM 17.6 °F 5.0 °F 6.8 °F 63% 30.41 in 10.0 mi SW 11.5 mph 16.1 mph N/A   Partly Cloudy
11:55 AM 17.6 °F 5.7 °F 3.2 °F 53% 30.40 in 10.0 mi West 10.4 mph - N/A   Partly Cloudy
12:15 PM 19.4 °F 7.2 °F 6.8 °F 58% 30.38 in 10.0 mi SW 11.5 mph 17.3 mph N/A   Clear
12:35 PM 19.4 °F 6.6 °F 3.2 °F 49% 30.37 in 10.0 mi West 12.7 mph 16.1 mph N/A   Clear
12:55 PM 19.4 °F 7.2 °F 6.8 °F 58% 30.37 in 10.0 mi WSW 11.5 mph - N/A   Clear
1:15 PM 19.4 °F 7.2 °F 5.0 °F 54% 30.35 in 10.0 mi West 11.5 mph 26.5 mph N/A   Clear
1:35 PM 21.2 °F 7.3 °F 5.0 °F 50% 30.34 in 10.0 mi WSW 16.1 mph 21.9 mph N/A   Clear
1:55 PM 21.2 °F 7.8 °F 6.8 °F 54% 30.34 in 10.0 mi SW 15.0 mph 23.0 mph N/A   Clear
2:15 PM 21.2 °F 6.8 °F 3.2 °F 46% 30.33 in 10.0 mi WSW 17.3 mph 23.0 mph N/A   Clear
2:35 PM 23.0 °F 12.4 °F 3.2 °F 43% 30.33 in 10.0 mi WSW 10.4 mph 24.2 mph N/A   Clear
2:55 PM 23.0 °F 12.4 °F 3.2 °F 43% 30.33 in 10.0 mi WSW 10.4 mph 16.1 mph N/A   Clear
3:15 PM 23.0 °F 11.1 °F 3.2 °F 43% 30.32 in 10.0 mi WSW 12.7 mph 19.6 mph N/A   Clear
3:35 PM 23.0 °F 13.1 °F 1.4 °F 39% 30.31 in 10.0 mi WSW 9.2 mph 19.6 mph N/A   Clear
3:55 PM 21.2 °F 8.3 °F 3.2 °F 46% 30.31 in 10.0 mi SW 13.8 mph 20.7 mph N/A   Scattered Clouds
4:15 PM 21.2 °F 9.5 °F 3.2 °F 46% 30.30 in 10.0 mi WSW 11.5 mph 23.0 mph N/A   Overcast
4:35 PM 21.2 °F 10.1 °F 3.2 °F 46% 30.30 in 10.0 mi WSW 10.4 mph 18.4 mph N/A   Overcast
4:55 PM 21.2 °F 8.9 °F 3.2 °F 46% 30.30 in 10.0 mi WSW 12.7 mph 21.9 mph N/A   Overcast
5:15 PM 21.2 °F 8.9 °F 1.4 °F 42% 30.30 in 10.0 mi WSW 12.7 mph 19.6 mph N/A   Overcast
5:35 PM 21.2 °F 8.3 °F 3.2 °F 46% 30.30 in 10.0 mi SW 13.8 mph 20.7 mph N/A   Overcast
5:55 PM 21.2 °F 10.9 °F 1.4 °F 42% 30.29 in 10.0 mi WSW 9.2 mph 17.3 mph N/A   Overcast
6:15 PM 21.2 °F 9.5 °F 3.2 °F 46% 30.28 in 10.0 mi SW 11.5 mph - N/A   Overcast
6:35 PM 21.2 °F 7.8 °F 3.2 °F 46% 30.28 in 10.0 mi SW 15.0 mph 20.7 mph N/A   Overcast
6:55 PM 21.2 °F 7.8 °F 3.2 °F 46% 30.28 in 10.0 mi SW 15.0 mph 19.6 mph N/A   Overcast
7:15 PM 21.2 °F 10.1 °F 3.2 °F 46% 30.27 in 10.0 mi SW 10.4 mph 18.4 mph N/A   Overcast
7:35 PM 21.2 °F 10.1 °F 3.2 °F 46% 30.27 in 10.0 mi SW 10.4 mph - N/A   Scattered Clouds
7:55 PM 21.2 °F 9.5 °F 3.2 °F 46% 30.27 in 10.0 mi SW 11.5 mph 17.3 mph N/A   Clear
8:15 PM 21.2 °F 8.3 °F 3.2 °F 46% 30.27 in 10.0 mi SW 13.8 mph 19.6 mph N/A   Clear
8:35 PM 21.2 °F 7.8 °F 3.2 °F 46% 30.27 in 10.0 mi SW 15.0 mph - N/A   Clear
8:55 PM 21.2 °F 9.5 °F 3.2 °F 46% 30.26 in 10.0 mi SW 11.5 mph 17.3 mph N/A   Clear
9:15 PM 21.2 °F 8.3 °F 3.2 °F 46% 30.25 in 10.0 mi WSW 13.8 mph 18.4 mph N/A   Clear
9:35 PM 21.2 °F 10.1 °F 3.2 °F 46% 30.24 in 10.0 mi SW 10.4 mph - N/A   Clear
9:55 PM 21.2 °F 8.3 °F 3.2 °F 46% 30.24 in 10.0 mi SW 13.8 mph 20.7 mph N/A   Clear
10:15 PM 21.2 °F 9.5 °F 3.2 °F 46% 30.25 in 10.0 mi SW 11.5 mph 19.6 mph N/A   Clear
10:35 PM 21.2 °F 8.3 °F 3.2 °F 46% 30.24 in 10.0 mi WSW 13.8 mph 19.6 mph N/A   Clear
10:55 PM 21.2 °F 9.5 °F 3.2 °F 46% 30.25 in 10.0 mi WSW 11.5 mph 18.4 mph N/A   Clear
11:15 PM 21.2 °F 10.1 °F 3.2 °F 46% 30.25 in 10.0 mi WSW 10.4 mph 17.3 mph N/A   Clear
11:35 PM 21.2 °F 10.1 °F 3.2 °F 46% 30.24 in 10.0 mi WSW 10.4 mph - N/A   Clear
11:55 PM 21.2 °F 9.5 °F 3.2 °F 46% 30.24 in 10.0 mi SW 11.5 mph 16.1 mph N/A   Clear